Time,TemperatureF,DewpointF,PressureIn,WindDirection,WindDirectionDegrees,WindSpeedMPH,WindSpeedGustMPH,Humidity,HourlyPrecipIn,Conditions,Clouds,dailyrainin,SoftwareType,DateUTC
2013-02-28 10:44:00,50.4,29.8,30.32,WNW,293,6.0,-999.0,45,0.00,,,0.00,Wunderground v.1.15,2013-02-28 16:44:00,
2013-02-28 10:50:00,50.9,29.7,30.32,WSW,239,6.0,-999.0,44,0.00,,,0.00,Wunderground v.1.15,2013-02-28 16:50:00,
2013-02-28 10:56:00,51.4,29.6,30.31,NE,56,6.0,-999.0,43,0.00,,,0.00,Wunderground v.1.15,2013-02-28 16:56:00,
2013-02-28 11:04:00,52.1,30.3,30.31,ENE,75,7.0,-999.0,43,0.00,,,0.00,Wunderground v.1.15,2013-02-28 17:04:00,
2013-02-28 11:10:00,52.5,29.5,30.31,East,92,6.0,-999.0,41,0.00,,,0.00,Wunderground v.1.15,2013-02-28 17:10:00,
2013-02-28 11:16:00,52.3,29.3,30.30,ENE,60,8.0,-999.0,41,0.00,,,0.00,Wunderground v.1.15,2013-02-28 17:16:00,
2013-02-28 11:22:00,52.3,29.3,30.30,East,94,9.0,-999.0,41,0.00,,,0.00,Wunderground v.1.15,2013-02-28 17:22:00,
2013-02-28 11:28:00,52.2,29.2,30.30,East,95,8.0,-999.0,41,0.00,,,0.00,Wunderground v.1.15,2013-02-28 17:28:00,
2013-02-28 11:34:00,52.5,29.5,30.30,NNW,330,7.0,-999.0,41,0.00,,,0.00,Wunderground v.1.15,2013-02-28 17:34:00,
2013-02-28 11:40:00,52.6,28.9,30.30,NW,314,8.0,-999.0,40,0.00,,,0.00,Wunderground v.1.15,2013-02-28 17:40:00,
2013-02-28 11:46:00,52.9,28.6,30.30,NW,321,8.0,-999.0,39,0.00,,,0.00,Wunderground v.1.15,2013-02-28 17:46:00,
2013-02-28 11:52:00,53.2,28.9,30.30,NNW,345,8.0,-999.0,39,0.00,,,0.00,Wunderground v.1.15,2013-02-28 17:52:00,
2013-02-28 11:58:00,53.2,28.9,30.29,NE,55,8.0,-999.0,39,0.00,,,0.00,Wunderground v.1.15,2013-02-28 17:58:00,
2013-02-28 12:04:00,53.3,28.9,30.29,East,91,7.0,-999.0,39,0.00,,,0.00,Wunderground v.1.15,2013-02-28 18:04:00,
2013-02-28 12:10:00,53.7,28.7,30.29,NNW,332,7.0,-999.0,38,0.00,,,0.00,Wunderground v.1.15,2013-02-28 18:10:00,
2013-02-28 12:16:00,54.6,28.8,30.28,NNW,345,6.0,-999.0,37,0.00,,,0.00,Wunderground v.1.15,2013-02-28 18:16:00,
2013-02-28 12:22:00,55.1,28.6,30.28,West,277,6.0,-999.0,36,0.00,,,0.00,Wunderground v.1.15,2013-02-28 18:22:00,
2013-02-28 12:28:00,55.3,28.1,30.27,North,352,6.0,-999.0,35,0.00,,,0.00,Wunderground v.1.15,2013-02-28 18:28:00,
2013-02-28 12:34:00,55.0,29.2,30.27,NW,316,6.0,-999.0,37,0.00,,,0.00,Wunderground v.1.15,2013-02-28 18:34:00,
2013-02-28 12:40:00,55.2,28.0,30.27,NE,45,6.0,-999.0,35,0.00,,,0.00,Wunderground v.1.15,2013-02-28 18:40:00,
2013-02-28 12:46:00,55.3,28.8,30.26,NE,45,6.0,-999.0,36,0.00,,,0.00,Wunderground v.1.15,2013-02-28 18:46:00,
2013-02-28 12:52:00,55.9,27.9,30.26,WNW,284,6.0,-999.0,34,0.00,,,0.00,Wunderground v.1.15,2013-02-28 18:52:00,
2013-02-28 12:58:00,56.0,28.0,30.25,North,359,6.0,-999.0,34,0.00,,,0.00,Wunderground v.1.15,2013-02-28 18:58:00,
2013-02-28 13:04:00,56.4,27.6,30.25,NW,305,6.0,-999.0,33,0.00,,,0.00,Wunderground v.1.15,2013-02-28 19:04:00,
2013-02-28 13:10:00,56.8,28.0,30.24,North,359,7.0,-999.0,33,0.00,,,0.00,Wunderground v.1.15,2013-02-28 19:10:00,
2013-02-28 13:16:00,57.6,27.9,30.23,WNW,297,7.0,-999.0,32,0.00,,,0.00,Wunderground v.1.15,2013-02-28 19:16:00,
2013-02-28 13:22:00,57.4,27.7,30.22,NE,56,7.0,-999.0,32,0.00,,,0.00,Wunderground v.1.15,2013-02-28 19:22:00,
2013-02-28 13:28:00,57.8,26.5,30.22,NE,50,6.0,-999.0,30,0.00,,,0.00,Wunderground v.1.15,2013-02-28 19:28:00,
2013-02-28 13:34:00,57.9,25.8,30.23,North,356,6.0,-999.0,29,0.00,,,0.00,Wunderground v.1.15,2013-02-28 19:34:00,
2013-02-28 13:40:00,58.1,26.0,30.22,North,10,6.0,-999.0,29,0.00,,,0.00,Wunderground v.1.15,2013-02-28 19:40:00,
2013-02-28 13:46:00,57.8,25.7,30.22,NW,305,6.0,-999.0,29,0.00,,,0.00,Wunderground v.1.15,2013-02-28 19:46:00,
2013-02-28 13:52:00,58.5,25.5,30.22,NW,318,5.0,-999.0,28,0.00,,,0.00,Wunderground v.1.15,2013-02-28 19:52:00,
2013-02-28 13:58:00,58.4,26.2,30.21,NNE,24,6.0,-999.0,29,0.00,,,0.00,Wunderground v.1.15,2013-02-28 19:58:00,
2013-02-28 14:04:00,58.8,26.6,30.22,West,281,6.0,-999.0,29,0.00,,,0.00,Wunderground v.1.15,2013-02-28 20:04:00,
2013-02-28 14:10:00,58.9,26.7,30.22,NE,37,5.0,-999.0,29,0.00,,,0.00,Wunderground v.1.15,2013-02-28 20:10:00,
2013-02-28 14:16:00,58.2,26.9,30.21,West,278,6.0,-999.0,30,0.00,,,0.00,Wunderground v.1.15,2013-02-28 20:16:00,
2013-02-28 14:22:00,58.4,26.2,30.21,WNW,300,5.0,-999.0,29,0.00,,,0.00,Wunderground v.1.15,2013-02-28 20:22:00,
2013-02-28 14:28:00,58.9,26.7,30.21,NNW,333,5.0,-999.0,29,0.00,,,0.00,Wunderground v.1.15,2013-02-28 20:28:00,
2013-02-28 14:34:00,58.9,25.8,30.20,NE,53,5.0,-999.0,28,0.00,,,0.00,Wunderground v.1.15,2013-02-28 20:34:00,
2013-02-28 14:40:00,58.9,25.8,30.20,NW,305,6.0,-999.0,28,0.00,,,0.00,Wunderground v.1.15,2013-02-28 20:40:00,
2013-02-28 14:46:00,58.9,24.9,30.20,WNW,294,5.0,-999.0,27,0.00,,,0.00,Wunderground v.1.15,2013-02-28 20:46:00,
2013-02-28 14:52:00,59.0,25.0,30.20,NNE,26,6.0,-999.0,27,0.00,,,0.00,Wunderground v.1.15,2013-02-28 20:52:00,
2013-02-28 14:58:00,58.9,24.9,30.20,NW,309,5.0,-999.0,27,0.00,,,0.00,Wunderground v.1.15,2013-02-28 20:58:00,
2013-02-28 15:04:00,58.8,25.7,30.20,North,356,4.0,-999.0,28,0.00,,,0.00,Wunderground v.1.15,2013-02-28 21:04:00,
2013-02-28 15:10:00,59.0,25.9,30.20,NNW,336,4.0,-999.0,28,0.00,,,0.00,Wunderground v.1.15,2013-02-28 21:10:00,
2013-02-28 15:16:00,59.5,25.5,30.19,NE,46,4.0,-999.0,27,0.00,,,0.00,Wunderground v.1.15,2013-02-28 21:16:00,
2013-02-28 15:22:00,59.9,25.8,30.19,West,277,5.0,-999.0,27,0.00,,,0.00,Wunderground v.1.15,2013-02-28 21:22:00,
2013-02-28 15:28:00,60.4,25.3,30.20,NW,321,6.0,-999.0,26,0.00,,,0.00,Wunderground v.1.15,2013-02-28 21:28:00,
2013-02-28 15:34:00,60.5,25.4,30.19,NW,309,5.0,-999.0,26,0.00,,,0.00,Wunderground v.1.15,2013-02-28 21:34:00,
2013-02-28 15:40:00,60.9,25.7,30.19,NE,41,5.0,-999.0,26,0.00,,,0.00,Wunderground v.1.15,2013-02-28 21:40:00,
2013-02-28 15:46:00,60.9,24.8,30.19,ENE,63,5.0,-999.0,25,0.00,,,0.00,Wunderground v.1.15,2013-02-28 21:46:00,
2013-02-28 15:52:00,61.2,25.1,30.19,ENE,70,6.0,-999.0,25,0.00,,,0.00,Wunderground v.1.15,2013-02-28 21:52:00,
2013-02-28 15:58:00,61.1,25.0,30.19,ENE,64,6.0,-999.0,25,0.00,,,0.00,Wunderground v.1.15,2013-02-28 21:58:00,
2013-02-28 16:04:00,60.7,25.6,30.19,NNE,20,6.0,-999.0,26,0.00,,,0.00,Wunderground v.1.15,2013-02-28 22:04:00,
2013-02-28 16:10:00,61.2,25.1,30.18,NE,41,5.0,-999.0,25,0.00,,,0.00,Wunderground v.1.15,2013-02-28 22:10:00,
2013-02-28 16:16:00,61.2,25.1,30.18,NNW,327,5.0,-999.0,25,0.00,,,0.00,Wunderground v.1.15,2013-02-28 22:16:00,
2013-02-28 16:22:00,61.5,24.3,30.18,WNW,287,5.0,-999.0,24,0.00,,,0.00,Wunderground v.1.15,2013-02-28 22:22:00,
2013-02-28 16:28:00,61.0,23.9,30.18,East,80,5.0,-999.0,24,0.00,,,0.00,Wunderground v.1.15,2013-02-28 22:28:00,
2013-02-28 16:34:00,60.8,24.7,30.18,NNE,20,6.0,-999.0,25,0.00,,,0.00,Wunderground v.1.15,2013-02-28 22:34:00,
2013-02-28 16:40:00,61.1,24.0,30.18,NNW,342,5.0,-999.0,24,0.00,,,0.00,Wunderground v.1.15,2013-02-28 22:40:00,
2013-02-28 16:46:00,61.1,24.0,30.18,North,8,4.0,-999.0,24,0.00,,,0.00,Wunderground v.1.15,2013-02-28 22:46:00,
2013-02-28 16:52:00,60.8,24.7,30.18,ENE,68,4.0,-999.0,25,0.00,,,0.00,Wunderground v.1.15,2013-02-28 22:52:00,
2013-02-28 16:58:00,60.8,24.7,30.18,NW,323,5.0,-999.0,25,0.00,,,0.00,Wunderground v.1.15,2013-02-28 22:58:00,
2013-02-28 17:04:00,60.7,24.6,30.18,NNW,330,4.0,-999.0,25,0.00,,,0.00,Wunderground v.1.15,2013-02-28 23:04:00,
2013-02-28 17:10:00,60.6,24.5,30.18,NNE,32,3.0,-999.0,25,0.00,,,0.00,Wunderground v.1.15,2013-02-28 23:10:00,
2013-02-28 17:16:00,60.5,24.5,30.18,WNW,303,3.0,-999.0,25,0.00,,,0.00,Wunderground v.1.15,2013-02-28 23:16:00,
2013-02-28 17:22:00,60.5,24.5,30.18,NNE,33,3.0,-999.0,25,0.00,,,0.00,Wunderground v.1.15,2013-02-28 23:22:00,
2013-02-28 17:28:00,60.5,25.4,30.18,NE,49,3.0,-999.0,26,0.00,,,0.00,Wunderground v.1.15,2013-02-28 23:28:00,
2013-02-28 17:34:00,60.2,25.1,30.18,ENE,64,3.0,-999.0,26,0.00,,,0.00,Wunderground v.1.15,2013-02-28 23:34:00,
2013-02-28 17:40:00,60.0,25.0,30.19,NW,315,4.0,-999.0,26,0.00,,,0.00,Wunderground v.1.15,2013-02-28 23:40:00,
2013-02-28 17:46:00,59.9,24.9,30.19,NNE,26,3.0,-999.0,26,0.00,,,0.00,Wunderground v.1.15,2013-02-28 23:46:00,
2013-02-28 17:52:00,59.7,24.7,30.19,NE,45,4.0,-999.0,26,0.00,,,0.00,Wunderground v.1.15,2013-02-28 23:52:00,
2013-02-28 17:58:00,59.4,24.5,30.20,NE,34,5.0,-999.0,26,0.00,,,0.00,Wunderground v.1.15,2013-02-28 23:58:00,
2013-02-28 18:04:00,59.3,24.4,30.19,NE,40,5.0,-999.0,26,0.00,,,0.00,Wunderground v.1.15,2013-03-01 00:04:00,
2013-02-28 18:10:00,59.2,24.3,30.20,NE,52,4.0,-999.0,26,0.00,,,0.00,Wunderground v.1.15,2013-03-01 00:10:00,
2013-02-28 18:16:00,59.0,24.1,30.20,NE,34,4.0,-999.0,26,0.00,,,0.00,Wunderground v.1.15,2013-03-01 00:16:00,
2013-02-28 18:22:00,58.8,23.9,30.20,NNE,25,3.0,-999.0,26,0.00,,,0.00,Wunderground v.1.15,2013-03-01 00:22:00,
2013-02-28 18:28:00,58.5,23.7,30.20,ENE,57,3.0,-999.0,26,0.00,,,0.00,Wunderground v.1.15,2013-03-01 00:28:00,
2013-02-28 18:34:00,58.2,24.3,30.20,NE,43,3.0,-999.0,27,0.00,,,0.00,Wunderground v.1.15,2013-03-01 00:34:00,
2013-02-28 18:40:00,57.9,24.1,30.20,ENE,70,2.0,-999.0,27,0.00,,,0.00,Wunderground v.1.15,2013-03-01 00:40:00,
2013-02-28 18:46:00,57.5,23.7,30.20,ENE,62,2.0,-999.0,27,0.00,,,0.00,Wunderground v.1.15,2013-03-01 00:46:00,
2013-02-28 18:52:00,57.2,24.3,30.20,ENE,67,1.0,-999.0,28,0.00,,,0.00,Wunderground v.1.15,2013-03-01 00:52:00,
2013-02-28 18:58:00,56.9,24.1,30.20,NE,56,1.0,-999.0,28,0.00,,,0.00,Wunderground v.1.15,2013-03-01 00:58:00,
2013-02-28 19:04:00,56.5,23.7,30.20,East,85,1.0,-999.0,28,0.00,,,0.00,Wunderground v.1.15,2013-03-01 01:04:00,
2013-02-28 19:10:00,56.2,24.3,30.21,ENE,61,1.0,-999.0,29,0.00,,,0.00,Wunderground v.1.15,2013-03-01 01:10:00,
2013-02-28 19:16:00,56.0,24.2,30.21,NE,56,1.0,-999.0,29,0.00,,,0.00,Wunderground v.1.15,2013-03-01 01:16:00,
2013-02-28 19:22:00,55.7,23.9,30.21,ENE,70,1.0,-999.0,29,0.00,,,0.00,Wunderground v.1.15,2013-03-01 01:22:00,
2013-02-28 19:28:00,55.5,24.5,30.22,ENE,57,1.0,-999.0,30,0.00,,,0.00,Wunderground v.1.15,2013-03-01 01:28:00,
2013-02-28 19:34:00,55.2,24.3,30.22,NE,56,1.0,-999.0,30,0.00,,,0.00,Wunderground v.1.15,2013-03-01 01:34:00,
2013-02-28 19:40:00,54.9,24.8,30.22,NE,56,0.0,-999.0,31,0.00,,,0.00,Wunderground v.1.15,2013-03-01 01:40:00,
2013-02-28 19:46:00,54.6,24.5,30.22,NE,56,0.0,-999.0,31,0.00,,,0.00,Wunderground v.1.15,2013-03-01 01:46:00,
2013-02-28 19:52:00,54.7,24.6,30.22,NE,55,1.0,-999.0,31,0.00,,,0.00,Wunderground v.1.15,2013-03-01 01:52:00,
2013-02-28 19:58:00,54.6,24.5,30.23,NE,55,1.0,-999.0,31,0.00,,,0.00,Wunderground v.1.15,2013-03-01 01:58:00,
2013-02-28 20:04:00,54.3,24.3,30.23,NE,55,1.0,-999.0,31,0.00,,,0.00,Wunderground v.1.15,2013-03-01 02:04:00,
2013-02-28 20:10:00,54.1,24.9,30.23,NE,55,1.0,-999.0,32,0.00,,,0.00,Wunderground v.1.15,2013-03-01 02:10:00,
2013-02-28 20:16:00,53.6,25.2,30.23,NE,55,0.0,-999.0,33,0.00,,,0.00,Wunderground v.1.15,2013-03-01 02:16:00,
2013-02-28 20:22:00,53.0,24.6,30.23,NE,56,0.0,-999.0,33,0.00,,,0.00,Wunderground v.1.15,2013-03-01 02:22:00,
2013-02-28 20:28:00,52.2,25.3,30.23,NE,55,0.0,-999.0,35,0.00,,,0.00,Wunderground v.1.15,2013-03-01 02:28:00,
2013-02-28 20:34:00,51.5,26.1,30.23,ENE,57,0.0,-999.0,37,0.00,,,0.00,Wunderground v.1.15,2013-03-01 02:34:00,
2013-02-28 20:40:00,51.0,25.6,30.23,ENE,57,0.0,-999.0,37,0.00,,,0.00,Wunderground v.1.15,2013-03-01 02:40:00,
2013-02-28 20:46:00,51.2,25.1,30.23,ENE,57,0.0,-999.0,36,0.00,,,0.00,Wunderground v.1.15,2013-03-01 02:46:00,
2013-02-28 20:52:00,51.2,25.1,30.23,ENE,57,0.0,-999.0,36,0.00,,,0.00,Wunderground v.1.15,2013-03-01 02:52:00,
2013-02-28 20:58:00,51.2,25.1,30.24,ENE,57,0.0,-999.0,36,0.00,,,0.00,Wunderground v.1.15,2013-03-01 02:58:00,
2013-02-28 21:04:00,51.0,25.0,30.24,ENE,57,0.0,-999.0,36,0.00,,,0.00,Wunderground v.1.15,2013-03-01 03:04:00,
2013-02-28 21:10:00,50.7,25.3,30.24,ENE,57,0.0,-999.0,37,0.00,,,0.00,Wunderground v.1.15,2013-03-01 03:10:00,
2013-02-28 21:16:00,50.3,25.6,30.24,ENE,57,0.0,-999.0,38,0.00,,,0.00,Wunderground v.1.15,2013-03-01 03:16:00,
2013-02-28 21:22:00,50.0,25.4,30.24,ENE,57,0.0,-999.0,38,0.00,,,0.00,Wunderground v.1.15,2013-03-01 03:22:00,
2013-02-28 21:28:00,49.5,25.5,30.24,ENE,57,0.0,-999.0,39,0.00,,,0.00,Wunderground v.1.15,2013-03-01 03:28:00,
2013-02-28 21:34:00,49.6,25.0,30.24,ENE,69,0.0,-999.0,38,0.00,,,0.00,Wunderground v.1.15,2013-03-01 03:34:00,
2013-02-28 21:40:00,49.5,25.5,30.25,ENE,69,0.0,-999.0,39,0.00,,,0.00,Wunderground v.1.15,2013-03-01 03:40:00,
2013-02-28 21:46:00,49.9,24.6,30.24,North,9,0.0,-999.0,37,0.00,,,0.00,Wunderground v.1.15,2013-03-01 03:46:00,
2013-02-28 21:52:00,50.0,25.4,30.24,North,9,0.0,-999.0,38,0.00,,,0.00,Wunderground v.1.15,2013-03-01 03:52:00,
2013-02-28 21:58:00,49.2,25.3,30.24,North,9,0.0,-999.0,39,0.00,,,0.00,Wunderground v.1.15,2013-03-01 03:58:00,
2013-02-28 22:04:00,48.0,26.0,30.24,North,9,0.0,-999.0,42,0.00,,,0.00,Wunderground v.1.15,2013-03-01 04:04:00,
2013-02-28 22:10:00,46.9,26.1,30.24,North,9,0.0,-999.0,44,0.00,,,0.00,Wunderground v.1.15,2013-03-01 04:10:00,
2013-02-28 22:16:00,45.8,25.6,30.24,North,9,0.0,-999.0,45,0.00,,,0.00,Wunderground v.1.15,2013-03-01 04:16:00,
2013-02-28 22:22:00,45.4,25.8,30.24,North,9,0.0,-999.0,46,0.00,,,0.00,Wunderground v.1.15,2013-03-01 04:22:00,
2013-02-28 22:28:00,44.9,25.9,30.24,North,9,0.0,-999.0,47,0.00,,,0.00,Wunderground v.1.15,2013-03-01 04:28:00,
2013-02-28 22:34:00,45.0,26.0,30.24,North,9,0.0,-999.0,47,0.00,,,0.00,Wunderground v.1.15,2013-03-01 04:34:00,
2013-02-28 22:40:00,44.9,25.9,30.24,North,9,0.0,-999.0,47,0.00,,,0.00,Wunderground v.1.15,2013-03-01 04:40:00,
2013-02-28 22:46:00,44.8,26.3,30.24,North,9,0.0,-999.0,48,0.00,,,0.00,Wunderground v.1.15,2013-03-01 04:46:00,
2013-02-28 22:52:00,44.6,26.6,30.24,North,9,0.0,-999.0,49,0.00,,,0.00,Wunderground v.1.15,2013-03-01 04:52:00,
2013-02-28 22:58:00,44.3,26.3,30.24,North,9,0.0,-999.0,49,0.00,,,0.00,Wunderground v.1.15,2013-03-01 04:58:00,
2013-02-28 23:00:00,44.3,26.3,30.24,North,9,0.0,-999.0,49,0.00,,,0.00,Wunderground v.1.15,2013-03-01 05:00:00,
2013-02-28 23:04:00,44.3,26.3,30.24,North,9,0.0,-999.0,49,0.00,,,0.00,Wunderground v.1.15,2013-03-01 05:04:00,
2013-02-28 23:06:00,44.3,26.3,30.24,North,9,0.0,-999.0,49,0.00,,,0.00,Wunderground v.1.15,2013-03-01 05:06:00,
2013-02-28 23:12:00,44.4,26.4,30.24,North,9,0.0,-999.0,49,0.00,,,0.00,Wunderground v.1.15,2013-03-01 05:12:00,
2013-02-28 23:18:00,44.0,26.5,30.24,North,9,0.0,-999.0,50,0.00,,,0.00,Wunderground v.1.15,2013-03-01 05:18:00,
2013-02-28 23:22:00,43.7,26.3,30.24,North,9,0.0,-999.0,50,0.00,,,0.00,Wunderground v.1.15,2013-03-01 05:22:00,
2013-02-28 23:28:00,43.3,26.4,30.23,North,9,0.0,-999.0,51,0.00,,,0.00,Wunderground v.1.15,2013-03-01 05:28:00,
2013-02-28 23:34:00,43.0,27.0,30.23,North,9,0.0,-999.0,53,0.00,,,0.00,Wunderground v.1.15,2013-03-01 05:34:00,
2013-02-28 23:40:00,42.4,26.5,30.24,North,9,0.0,-999.0,53,0.00,,,0.00,Wunderground v.1.15,2013-03-01 05:40:00,
2013-02-28 23:46:00,41.9,26.4,30.23,North,9,0.0,-999.0,54,0.00,,,0.00,Wunderground v.1.15,2013-03-01 05:46:00,
2013-02-28 23:52:00,41.8,26.8,30.24,North,9,0.0,-999.0,55,0.00,,,0.00,Wunderground v.1.15,2013-03-01 05:52:00,
2013-02-28 23:58:00,41.5,27.0,30.24,North,9,0.0,-999.0,56,0.00,,,0.00,Wunderground v.1.15,2013-03-01 05:58:00,